Time,TemperatureF,DewpointF,PressureIn,WindDirection,WindDirectionDegrees,WindSpeedMPH,WindSpeedGustMPH,Humidity,HourlyPrecipIn,Conditions,Clouds,dailyrainin,SoftwareType,DateUTC
2013-09-30 00:44:00,62.0,-99.9,30.02,East,82,8.0,12.0,-999,0.00,,,-99.99,,2013-09-30 04:44:00,
2013-09-30 00:52:00,62.0,-99.9,30.01,East,84,9.0,10.0,-999,0.00,,,-99.99,,2013-09-30 04:52:00,
2013-09-30 01:43:00,62.0,-99.9,30.01,East,84,9.0,10.0,-999,0.00,,,-99.99,,2013-09-30 05:43:00,
2013-09-30 01:52:00,61.0,-99.9,30.01,NE,43,8.0,11.0,-999,0.00,,,-99.99,,2013-09-30 05:52:00,
2013-09-30 02:42:00,61.0,-99.9,30.01,NE,43,8.0,11.0,-999,0.00,,,-99.99,,2013-09-30 06:42:00,
2013-09-30 02:52:00,60.0,-99.9,30.00,North,-999,2.0,9.0,-999,0.00,,,-99.99,,2013-09-30 06:52:00,
2013-09-30 03:42:00,60.0,-99.9,30.00,North,-999,2.0,9.0,-999,0.00,,,-99.99,,2013-09-30 07:42:00,
2013-09-30 03:52:00,58.0,-99.9,30.01,NE,46,2.0,7.0,-999,0.00,,,-99.99,,2013-09-30 07:52:00,
2013-09-30 04:42:00,58.0,-99.9,30.01,NE,46,2.0,7.0,-999,0.00,,,-99.99,,2013-09-30 08:42:00,
2013-09-30 04:52:00,57.0,-99.9,30.00,NNE,27,3.0,7.0,-999,0.00,,,-99.99,,2013-09-30 08:52:00,
2013-09-30 05:42:00,57.0,-99.9,30.00,NNE,27,3.0,7.0,-999,0.00,,,-99.99,,2013-09-30 09:42:00,
2013-09-30 05:52:00,57.0,-99.9,30.01,North,10,6.0,7.0,-999,0.00,,,-99.99,,2013-09-30 09:52:00,
2013-09-30 06:43:00,57.0,-99.9,30.01,North,10,6.0,7.0,-999,0.00,,,-99.99,,2013-09-30 10:43:00,
2013-09-30 06:52:00,56.0,-99.9,30.02,NNE,14,2.0,8.0,-999,0.00,,,-99.99,,2013-09-30 10:52:00,
2013-09-30 07:43:00,56.0,-99.9,30.02,NNE,14,2.0,8.0,-999,0.00,,,-99.99,,2013-09-30 11:43:00,
2013-09-30 07:52:00,56.0,-99.9,30.02,NE,39,7.0,8.0,-999,0.00,,,-99.99,,2013-09-30 11:52:00,
2013-09-30 08:42:00,56.0,-99.9,30.02,NE,39,7.0,8.0,-999,0.00,,,-99.99,,2013-09-30 12:42:00,
2013-09-30 09:52:00,62.0,-99.9,30.01,NNE,24,6.0,13.0,-999,0.00,,,-99.99,,2013-09-30 13:52:00,
2013-09-30 10:42:00,62.0,-99.9,30.01,NNE,24,6.0,13.0,-999,0.00,,,-99.99,,2013-09-30 14:42:00,
2013-09-30 10:52:00,63.0,-99.9,30.01,NE,42,9.0,13.0,-999,0.00,,,-99.99,,2013-09-30 14:52:00,
2013-09-30 11:45:00,63.0,-99.9,30.01,NE,42,9.0,13.0,-999,0.00,,,-99.99,,2013-09-30 15:45:00,
2013-09-30 11:52:00,63.0,-99.9,29.99,East,79,10.0,12.0,-999,0.00,,,-99.99,,2013-09-30 15:52:00,
2013-09-30 12:44:00,63.0,-99.9,29.99,East,79,10.0,12.0,-999,0.00,,,-99.99,,2013-09-30 16:44:00,
2013-09-30 12:52:00,64.0,-99.9,29.98,East,100,9.0,12.0,-999,0.00,,,-99.99,,2013-09-30 16:52:00,
2013-09-30 13:43:00,64.0,-99.9,29.98,East,100,9.0,12.0,-999,0.00,,,-99.99,,2013-09-30 17:43:00,
2013-09-30 13:52:00,64.0,-99.9,29.97,ESE,113,9.0,13.0,-999,0.00,,,-99.99,,2013-09-30 17:52:00,
2013-09-30 14:42:00,64.0,-99.9,29.97,ESE,113,9.0,13.0,-999,0.00,,,-99.99,,2013-09-30 18:42:00,
2013-09-30 14:52:00,65.0,-99.9,29.96,SE,146,10.0,12.0,-999,0.00,,,-99.99,,2013-09-30 18:52:00,
2013-09-30 15:42:00,65.0,-99.9,29.96,SE,146,10.0,12.0,-999,0.00,,,-99.99,,2013-09-30 19:42:00,
2013-09-30 15:52:00,64.0,-99.9,29.95,ESE,119,6.0,12.0,-999,0.00,,,-99.99,,2013-09-30 19:52:00,
2013-09-30 16:43:00,64.0,-99.9,29.95,ESE,119,6.0,12.0,-999,0.00,,,-99.99,,2013-09-30 20:43:00,
2013-09-30 16:52:00,65.0,-99.9,29.94,ESE,107,6.0,10.0,-999,0.00,,,-99.99,,2013-09-30 20:52:00,
2013-09-30 17:44:00,65.0,-99.9,29.94,ESE,107,6.0,10.0,-999,0.00,,,-99.99,,2013-09-30 21:44:00,
2013-09-30 17:52:00,64.0,-99.9,29.94,South,183,9.0,9.0,-999,0.00,,,-99.99,,2013-09-30 21:52:00,
2013-09-30 18:44:00,64.0,-99.9,29.94,South,183,9.0,9.0,-999,0.00,,,-99.99,,2013-09-30 22:44:00,
2013-09-30 18:52:00,64.0,-99.9,29.94,SSW,208,2.0,7.0,-999,0.00,,,-99.99,,2013-09-30 22:52:00,
2013-09-30 19:43:00,64.0,-99.9,29.94,SSW,208,2.0,7.0,-999,0.00,,,-99.99,,2013-09-30 23:43:00,
2013-09-30 19:52:00,63.0,-99.9,29.94,WSW,242,6.0,6.0,-999,0.00,,,-99.99,,2013-09-30 23:52:00,
2013-09-30 20:43:00,63.0,-99.9,29.94,WSW,242,6.0,6.0,-999,0.00,,,-99.99,,2013-10-01 00:43:00,
2013-09-30 20:52:00,62.0,-99.9,29.95,WSW,243,2.0,7.0,-999,0.00,,,-99.99,,2013-10-01 00:52:00,
2013-09-30 21:42:00,62.0,-99.9,29.95,WSW,243,2.0,7.0,-999,0.00,,,-99.99,,2013-10-01 01:42:00,
2013-09-30 21:52:00,61.0,-99.9,29.96,WNW,302,-999.0,6.0,-999,0.00,,,-99.99,,2013-10-01 01:52:00,
2013-09-30 22:43:00,61.0,-99.9,29.96,WNW,302,-999.0,6.0,-999,0.00,,,-99.99,,2013-10-01 02:43:00,
2013-09-30 22:52:00,60.0,-99.9,29.96,WNW,295,7.0,8.0,-999,0.00,,,-99.99,,2013-10-01 02:52:00,
2013-09-30 23:44:00,60.0,-99.9,29.96,WNW,295,7.0,8.0,-999,0.00,,,-99.99,,2013-10-01 03:44:00,